ARG1219 SBBR-SABE

Flight info

Callsign ARG1219
Flight time N/A
Altitude FL360
Route PAPI2A KUKOL UM532 CUARA UL324 KUKEN
Aircraft B38M/M-SDE2E3FGHIRWXY/LB1

Departure

Time 2026-05-07 20:44
Airport Presidente Juscelino Kubitschek International Airport (SBBR)

Arrival

Time N/A
Airport Aeroparque Jorge Newbery (SABE)
Time Latitude Longitude Altitude Speed Heading
2026-05-07 20:25 -15.86759 -47.92101 3467 ft 0 kts 122°
2026-05-07 20:33 -15.86755 -47.92108 3467 ft 4 kts 121°
2026-05-07 20:34 -15.86742 -47.92133 3467 ft 4 kts 113°
2026-05-07 20:34 -15.86734 -47.92159 3465 ft 4 kts 96°
2026-05-07 20:34 -15.86737 -47.92184 3466 ft 4 kts 51°
2026-05-07 20:34 -15.86747 -47.92191 3466 ft 1 kts 25°
2026-05-07 20:35 -15.86748 -47.92192 3466 ft 0 kts 25°
2026-05-07 20:35 -15.86743 -47.92194 3467 ft 0 kts
2026-05-07 20:41 -15.86742 -47.92194 3467 ft 1 kts
2026-05-07 20:41 -15.86717 -47.92180 3466 ft 7 kts 31°
2026-05-07 20:41 -15.86656 -47.92160 3466 ft 12 kts 346°
2026-05-07 20:42 -15.86604 -47.92232 3464 ft 14 kts 295°
2026-05-07 20:42 -15.86547 -47.92334 3464 ft 18 kts 295°
2026-05-07 20:42 -15.86532 -47.92476 3464 ft 20 kts 266°
2026-05-07 20:42 -15.86544 -47.92636 3463 ft 25 kts 265°
2026-05-07 20:43 -15.86480 -47.92769 3463 ft 24 kts
2026-05-07 20:43 -15.86357 -47.92686 3463 ft 21 kts 75°
2026-05-07 20:43 -15.86345 -47.92571 3464 ft 0 kts 88°
2026-05-07 20:43 -15.86340 -47.92505 3465 ft 35 kts 85°
2026-05-07 20:44 -15.86309 -47.92010 3468 ft 101 kts 85°
2026-05-07 20:44 -15.86248 -47.91082 3474 ft 154 kts 86°
2026-05-07 20:44 -15.86159 -47.89836 3511 ft 191 kts 85°
2026-05-07 20:44 -15.86212 -47.88547 4350 ft 174 kts 95°
2026-05-07 20:45 -15.86436 -47.87148 3959 ft 220 kts 96°
2026-05-07 20:45 -15.86569 -47.85824 5272 ft 165 kts 91°
2026-05-07 20:45 -15.86844 -47.84598 5357 ft 198 kts 109°